278 visiteurs
Prévisions de votre ville :
Vigilance : 3 départements le 13/04/21 à 16:00 - Voir la carte - Être alerté(e)

Paris Roissy CDG (95380) le 14/04/21 à 04:30 Choisir station

2°C 69 % N Vit. moyenne 13 km/h
Commentez les publis

Relevés météo quotidiens pour la station de :

UTC
S: Synop
M: Metar
Loc T°C
(°C)
Td
(°C)
HR
(%)
Vis
(km)
Néb
(octa)
Vent
(km/h)
Pression
(mb)
Précipitations
(mm)
Temps
              MOY
10 min
DIR RAF 1h MESURE VAR SUR 3h    
S 00 h 01h 12.7 8.4 75 - 22 58 1000.8 -4.1/3h 2.0/6h - 0.4/3h -
S 01 h 02h 12.7 10.2 85 - 15 63 999.6 -4.6/3h 0.0/1h -
S 02 h 03h 13.3 9.7 79 - 26 91 998.0 -4.8/3h 0.2/1h -
S 03 h 04h 12.5 10.6 88 8 8/8 36 104 996.3 -4.4/3h 3.0/3h
S 04 h 05h 12.7 11.3 91 - 39 119 993.8 -5.7/3h 0.6/1h -
S 05 h 06h 11.9 10.3 90 - 59 106 994.9 -3.1/3h 6.0/1h -
S 06 h 07h 13.4 11.3 87 8 8/8 61 102 994.7 -1.6/3h 13.0/12h - 8.0/3h - 13.0/24h
S 07 h 08h 13.3 11.7 90 - 70 106 993.5 -0.3/3h 0.8/1h -
S 08 h 09h 14.3 12.2 87 - 43 108 992.9 -1.9/3h 0.8/1h -
S 09 h 10h 13.7 12.4 92 6 8/8 37 124 991.8 -2.8/3h 4.0/3h
S 10 h 11h 14.4 12.8 90 - 47 119 991.1 -2.3/3h 0.2/1h -
S 11 h 12h 15.4 12.7 84 - 48 133 989.1 -3.7/3h 0.0/1h -
S 12 h 13h 15.5 12.6 83 6 8/8 50 133 987.8 -3.9/3h 4.0/6h - 0.2/3h
S 13 h 14h 15.8 11.6 76 - 83 133 988.8 -2.2/3h 0.0/1h -
S 14 h 15h 15.2 11.6 79 - 81 130 987.6 -1.5/3h 0.0/1h -
S 15 h 16h 14.9 9.3 69 6 5/8 96 130 987.2 -0.6/3h 0.0/1h
S 16 h 17h 14.5 8.4 67 - 80 133 988.8 0.0/3h 0.0/1h -
S 17 h 18h 13.9 7.4 65 - 68 122 991.7 +4.0/3h 0.0/1h -
S 18 h 19h 13.8 7.3 65 10 7/8 79 140 990.7 +3.4/3h 4.0/12h
S 19 h 20h 13.8 5.2 56 - 69 128 992.5 +3.6/3h 0.0/1h -
S 20 h 21h 13.6 2.8 48 - 72 117 993.0 +1.2/3h 0.0/1h -
S 21 h 22h 13.2 3.8 53 - 74 126 993.0 +2.2/3h 0.0/3h -
S 22 h 23h 13.4 2.9 49 - 74 120 995.4 +2.8/3h 0.0/1h -
S 23 h 00h 13.6 5.5 58 - 74 117 995.9 +2.9/3h 0.0/1h -

Télécharger ces données au format CSV pour le 13/12/2019

evolution des temperatures
cumul des precipitations
vent moyen et rafales
pression atmospherique

Un tiret (-) signifie que les données ne sont pas disponibles.

Passez la souris sur les pictos temps pour avoir plus de précisions. Passez les flèches sur l'icône de la direction du vent pour voir la direction précise en degrés.

Les données de l'heure en cours sont disponibles à partir de H+15 minutes.


S signifie station Synop, plus complète qu'une station Metar (M). Il y a +1h de différence entre l'heure UTC et l'heure légale en hiver et +2h en été.

Td est la mesure du point de rosée.

HR est l'humidité relative/p>

Vis est la visibilité

Néb est la nébulosité du ciel (couverture nuageuse) exprimée en octas (de 0/8 à 8/8).

Vent moy 10 min donne le vent moyen sur les 10 minutes qui précèdent le relevé.

Vent raf 1h donne la rafale maximale mesurée dans l'heure qui précède le relevé.


Les données les plus anciennes remontent à avril 2014.

Les données présentées sur cette page proviennent des stations météo officielles. Les relevés sont effectués aux normes en vigueur (anémomètre à 10m de haut, thermomètre sous abri normalisé à 2m du sol...)

Météo 60 décline toute responsabilité en cas d'absence de données, d'erreurs, de mauvaise utilisation ou interprétation et n'est pas habilité à fournir des certificats intempéries.